User: anonymous   Login
Location: Unspecified
(0.0000°N, 0.0000°E)
Time: 00:12:30
(UTC+00:00)
Language:

S-56A Canister/Altair - Orbit

View from above orbital plane
View from above orbital plane
View from above satellite
View from above satellite

Ground track
Ground track

The orbit data is extracted from the following two-line orbital elements,

1    82U 61004B   19257.15020509 +.00000024 +00000-0 +50917-4 0  9999
2    82 038.8567 145.1625 1174288 185.2508 173.4833 12.26049586773776
Epoch (UTC): 14 September 2019 03:36:17
Eccentricity: 0.1174288
inclination: 38.8567°
perigee height: 633 km
apogee height: 2499 km
right ascension of ascending node: 145.1625°
argument of perigee: 185.2508°
revolutions per day: 12.26049586
mean anomaly at epoch: 173.4833°
orbit number at epoch: 77377

The dashed part of the orbit path shows where the satellite is in the earth's shadow,  

DLR